This demonstration page uses our WeatherBlox Daily Observations layout. Learn more.

Left ArrowRight Arrow

38.89511, -77.03637

Hourly Observations for March 1, 2019

Temp ( °F °C ) Dew Point ( °F °C ) Humidity (%) Winds ( mph kmh ) Pressure ( in mb ) Visibility ( mi km ) Precip ( " mm )
12:27 am 00:27 Cloudy 39 3.9 22 -5.6 50 50 ESE 7 11 30.23 1024 10 16 0.00 0.03
12:52 am 00:52 Cloudy 37 2.8 25 -3.9 62 62 E 7 11 30.23 1024 10 16 0.02 0.51
1:52 am 01:52 Cloudy 36 2.2 28 -2.2 73 73 ENE 6 9 30.24 1024 9 14 0.06 1.52
2:05 am 02:05 Cloudy 36 2.2 29 -1.7 76 76 ENE 7 11 30.23 1024 7 11 0.01 0.25
2:42 am 02:42 Cloudy 35 1.7 30 -1.1 82 82 ENE 10 17 30.22 1023 9 14 0.02 0.51
2:52 am 02:52 Cloudy 35 1.7 30 -1.1 82 82 ENE 10 17 30.22 1023 10 16 0.02 0.51
3:24 am 03:24 Cloudy with Light Rain/Snow 35 1.7 31 -0.6 85 85 NE 12 19 30.23 1024 9 14 0.00 0.03
3:45 am 03:45 Cloudy 35 1.7 31 -0.6 85 85 NE 13 20 30.22 1023 9 14 0.00 0.00
3:52 am 03:52 Cloudy 35 1.7 30 -1.1 82 82 ENE 14 22 30.22 1023 8 13 0.00 0.00
4:14 am 04:14 Cloudy 34 1.1 30 -1.1 85 85 NE 12 19 30.24 1024 9 14 0.00 0.00
4:21 am 04:21 Cloudy with Light Rain 34 1.1 30 -1.1 85 85 NE 10 17 30.25 1024 9 14 0.00 0.00
4:29 am 04:29 Cloudy 34 1.1 30 -1.1 85 85 ENE 12 19 30.24 1024 7 11 0.01 0.25
4:52 am 04:52 Cloudy with Mist and Fog 34 1.1 30 -1.1 85 85 ENE 10 17 30.23 1024 5 8 0.03 0.76
5:47 am 05:47 Cloudy 34 1 30 -1 87 87 ENE 9 15 30.25 1024 9 14 0.04 1.02
5:52 am 05:52 Cloudy 34 1.1 30 -1.1 85 85 ENE 9 15 30.25 1024 10 16 0.04 1.02
6:52 am 06:52 Cloudy 34 1.1 30 -1.1 85 85 ENE 9 15 30.25 1024 10 16 0.00 0.00
7:52 am 07:52 Cloudy 34 1.1 30 -1.1 85 85 ENE 9 15 30.26 1025 10 16 0.00 0.00
8:52 am 08:52 Cloudy 35 1.7 30 -1.1 82 82 ENE 10 17 30.27 1025 10 16 0.00 0.00
9:52 am 09:52 Cloudy 35 1.7 30 -1.1 82 82 ENE 10 17 30.28 1025 10 16 0.00 0.00
10:52 am 10:52 Cloudy 35 1.7 30 -1.1 82 82 ENE 10 17 30.28 1025 10 16 0.00 0.00
11:52 am 11:52 Cloudy 36 2.2 30 -1.1 79 79 ENE 10 17 30.28 1026 10 16 0.00 0.00
12:52 pm 12:52 Cloudy 37 2.8 31 -0.6 79 79 NE 9 15 30.26 1025 10 16 0.00 0.00
1:52 pm 13:52 Cloudy 37 2.8 31 -0.6 79 79 NE 9 15 30.25 1024 10 16 0.00 0.00
2:52 pm 14:52 Cloudy 37 2.8 31 -0.6 79 79 NNE 8 13 30.22 1023 10 16 0.00 0.00
3:52 pm 15:52 Cloudy 37 2.8 31 -0.6 79 79 ENE 12 19 30.20 1023 10 16 0.00 0.00
4:52 pm 16:52 Cloudy 37 2.8 31 -0.6 79 79 NE 13 20 30.17 1022 10 16 0.00 0.00
5:35 pm 17:35 Cloudy with Light Rain 36 2.2 31 -0.6 82 82 NNE 13 20 30.17 1022 5 8 0.00 0.03
5:52 pm 17:52 Cloudy with Rain 36 2.2 31 -0.6 82 82 NE 9 15 30.18 1022 5 8 0.01 0.25
6:52 pm 18:52 Cloudy with Light Rain 36 2.2 32 0 86 86 NNE 13 20 30.19 1022 9 14 0.02 0.51
7:52 pm 19:52 Cloudy with Rain 36 2.2 32 0 86 86 NNE 9 15 30.18 1022 5 8 0.06 1.52
8:15 pm 20:15 Cloudy with Rain 36 2.2 32 0 86 86 NE 9 15 30.18 1022 5 8 0.03 0.76
8:52 pm 20:52 Cloudy with Heavy Rain 36 2.2 32 0 86 86 NE 8 13 30.17 1022 4 6 0.11 2.79
9:21 pm 21:21 Cloudy with Rain 36 2.2 33 0.6 89 89 NNE 8 13 30.15 1021 4 6 0.07 1.78
9:52 pm 21:52 Cloudy with Rain 36 2.2 33 0.6 89 89 NE 10 17 30.13 1020 5 8 0.14 3.56
10:04 pm 22:04 Cloudy with Rain 36 2.2 33 0.6 89 89 NE 12 19 30.12 1020 5 8 0.04 1.02
10:52 pm 22:52 Cloudy with Light Rain 36 2.2 33 0.6 89 89 NNE 13 20 30.09 1019 8 13 0.12 3.05
11:52 pm 23:52 Cloudy with Light Rain 37 2.8 33 0.6 86 86 NNE 9 15 30.09 1019 10 16 0.01 0.25

Powered by AerisWeather